This is the latest recevied weather packets stored in our database for station/object AC5CM. If no packets are shown the sender has not sent any weather packets the latest 1 day(s).
| Time | Temp. | Humidity | Pressure | Rain* | Wind** | Luminosity | Snow |
|---|---|---|---|---|---|---|---|
| 1777980876 | 22.22° C | 92% | 1009.7 hPa | 0 mm | 0.45 m/s, 130° | - | - |
| 1777980572 | 22.22° C | 92% | 1009.5 hPa | 0 mm | 1.34 m/s, 139° | - | - |
| 1777980270 | 22.22° C | 92% | 1009.5 hPa | 0 mm | 0.89 m/s, 129° | - | - |
| 1777979966 | 22.22° C | 93% | 1009.4 hPa | 0 mm | 0 m/s | - | - |
| 1777979660 | 22.22° C | 93% | 1009.4 hPa | 0 mm | 0.89 m/s, 130° | - | - |
| 1777979357 | 22.22° C | 93% | 1009.8 hPa | 0 mm | 0 m/s | - | - |
| 1777979054 | 21.67° C | 93% | 1009.7 hPa | 0 mm | 0 m/s | - | - |
| 1777978750 | 21.67° C | 93% | 1009.8 hPa | 0 mm | 0.45 m/s, 123° | - | - |
| 1777978447 | 21.67° C | 93% | 1009.7 hPa | 0 mm | 0.89 m/s, 142° | - | - |
| 1777978144 | 21.67° C | 93% | 1010 hPa | 0 mm | 0 m/s | - | - |
| 1777977841 | 21.67° C | 92% | 1009.8 hPa | 0 mm | 0 m/s | - | - |
| 1777977536 | 21.67° C | 92% | 1009.6 hPa | 0 mm | 0 m/s | - | - |
| 1777977235 | 21.67° C | 92% | 1009.5 hPa | 0 mm | 0.45 m/s, 148° | - | - |
| 1777976932 | 21.67° C | 92% | 1009.7 hPa | 0 mm | 0.45 m/s, 123° | - | - |
| 1777976629 | 21.67° C | 92% | 1009.5 hPa | 0 mm | 0.89 m/s, 125° | - | - |
| 1777976325 | 21.67° C | 92% | 1009.6 hPa | 0 mm | 0.45 m/s, 137° | - | - |
| 1777976019 | 21.67° C | 93% | 1009.7 hPa | 0 mm | 0 m/s | - | - |
| 1777975715 | 21.67° C | 93% | 1009.9 hPa | 0 mm | 0 m/s | - | - |
| 1777975412 | 21.67° C | 93% | 1009.9 hPa | 0 mm | 0.45 m/s, 124° | - | - |
| 1777975108 | 21.67° C | 92% | 1009.8 hPa | 0 mm | 0 m/s | - | - |
| 1777974806 | 21.67° C | 92% | 1009.8 hPa | 0 mm | 0.45 m/s, 132° | - | - |
| 1777974501 | 21.67° C | 92% | 1009.6 hPa | 0 mm | 0.89 m/s, 132° | - | - |
| 1777974199 | 21.67° C | 92% | 1009.6 hPa | 0 mm | 0 m/s | - | - |
| 1777973894 | 21.67° C | 92% | 1009.7 hPa | 0 mm | 0.89 m/s, 137° | - | - |
| 1777973592 | 21.67° C | 92% | 1009.9 hPa | 0 mm | 0.89 m/s, 147° | - | - |
* Rain latest hour (hover to see other rain measurements)
** Current wind speed in m/s (hover to see current wind gust speed)